Location: �perlecques
(50.8057°N, 2.1521°E)
Time: 02:58:14
(UTC+00:00)

DX 1 - Visible Passes

Search period start: 21 April 2024 00:00
Search period end: 01 May 2024 00:00
Orbit: 610 x 620 km, 98.3° (Epoch: 20 April)

Date Brightness Start Highest point End Pass type
(mag) Time Alt. Az. Time Alt. Az. Time Alt. Az.
21 Apr ? 00:36:46 10° N 00:40:31 39° NW 00:40:31 39° NW visible
21 Apr ? 23:16:34 10° NNE 23:19:28 31° ENE 23:19:28 31° ENE visible
22 Apr ? 00:52:42 10° N 00:56:28 29° WNW 00:56:32 29° WNW visible
22 Apr ? 23:32:08 10° NNE 23:35:28 43° ENE 23:35:28 43° ENE visible
23 Apr ? 01:08:42 10° N 01:12:04 22° WNW 01:12:32 22° WNW visible
23 Apr ? 23:47:48 10° NNE 23:51:28 59° NE 23:51:28 59° NE visible
24 Apr ? 01:24:49 10° NNW 01:27:38 17° WNW 01:28:32 16° WNW visible
24 Apr ? 22:29:14 10° ENE 22:30:23 12° ENE 22:30:23 12° ENE visible
25 Apr ? 00:03:30 10° NNE 00:07:26 71° N 00:07:26 71° N visible
25 Apr ? 01:41:09 10° NNW 01:43:08 13° NW 01:44:30 11° WNW visible
25 Apr ? 22:44:11 10° NE 22:46:21 17° ENE 22:46:21 17° ENE visible
26 Apr ? 00:19:16 10° N 00:23:25 58° WNW 00:23:25 58° WNW visible
26 Apr ? 22:59:27 10° NE 23:02:18 24° ENE 23:02:18 24° ENE visible
27 Apr ? 00:35:04 10° N 00:39:11 42° WNW 00:39:22 42° WNW visible
27 Apr ? 23:14:52 10° NNE 23:18:15 32° E 23:18:15 32° E visible
28 Apr ? 00:50:56 10° N 00:54:47 31° WNW 00:55:19 30° W visible
28 Apr ? 23:30:23 10° NNE 23:34:11 46° E 23:34:11 46° E visible
29 Apr ? 01:06:51 10° N 01:10:19 24° WNW 01:11:15 22° W visible
29 Apr ? 23:45:58 10° NNE 23:50:06 66° E 23:50:06 66° E visible
30 Apr ? 01:22:53 10° NNW 01:25:49 18° WNW 01:27:10 16° W visible
30 Apr ? 22:27:36 10° ENE 22:28:57 12° E 22:28:57 12° E visible
